AirNav   ATP
 
 990 users online  

FL85 Baptist Hospital Heliport
Pensacola, Florida, USA

GOING TO PENSACOLA?


FAA INFORMATION EFFECTIVE 14 SEPTEMBER 2017

Location

FAA Identifier: FL85
Lat/Long: 30-25-45.7110N / 087-13-51.8950W
30-25.761850N / 087-13.864917W
30.4293642 / -87.2310819
(estimated)
Elevation: 115 ft. / 35 m (estimated)
Variation: 01E (1985)
Time zone: UTC -5 (UTC -6 during Standard Time)
Zip code: 32501

Heliport Operations

Heliport use: Private use. Permission required prior to landing
Activation date: 01/1974
Control tower: no
ARTCC: JACKSONVILLE CENTER
FSS: GAINESVILLE FLIGHT SERVICE STATION
Attendance: CONTINUOUS
Wind indicator: yes
Segmented circle: no
Beacon: white-green-yellow (heliport)
24 HRS

Heliport Communications

WX ASOS at PNS (4 nm NE): PHONE 850-436-4799
  • 122.825 USED INFREQUENTLY FOR COMMUNICATIONS.

Nearby radio navigation aids

VOR radial/distance  VOR name  Freq  Var
NUNr114/(6.0)SAUFLEY VOR108.8001E
CEWr227/37.1CRESTVIEW VORTAC115.9003E

 
NDB name  Hdg/Dist  Freq  Var  ID
PICKENS262/2.832602WPKZ .--. -.- --..

Heliport Services

Airframe service: NONE
Powerplant service: NONE

Runway Information

Helipad H1

Dimensions: 52 x 52 ft. / 16 x 16 m
Surface: concrete
Runway edge lights: PERIMETER LGTS.
Latitude: 30-25.776833N
Longitude: 087-13.844000W
Elevation: 115.0 ft.
Traffic pattern: rightleft

Heliport Ownership and Management from official FAA records

Ownership: Privately-owned
Owner: BAPTIST HOSPITAL
1000 W MORENO ST
PENSACOLA, FL 32501
Phone (850) 469-2304
Manager: DAVID KOVACH
1000 W MORENO ST
PENSACOLA, FL 32501
Phone (850) 469-2304

Heliport Operational Statistics

Aircraft based on the field: 2
Single engine airplanes: 1
Helicopters: 1
    

Additional Remarks

A52-H1 PLINES EAST OF FACILITY.

Instrument Procedures

There are no published instrument procedures at FL85.

Some nearby airports with instrument procedures:

KPNS - Pensacola International Airport (4 nm NE)
KNPA - Pensacola Naval Air Station/Forrest Sherman Field (6 nm SW)
2R4 - Peter Prince Field Airport (18 nm NE)
KNDZ - Whiting Field Naval Air Station South (20 nm NE)
KNSE - Whiting Field Naval Air Station North (21 nm NE)
 
Loc | Ops | Rwys | IFR | FBO | Links
Com | Nav | Svcs | Stats | Notes

Continental Motors
AirBoss

 
Area around FL85 (Baptist Hospital Heliport)
 
Road maps at: MapQuest Bing Google
 
Aerial photo
No photo
 
Sectional chart

 
Airport distance calculator
Flying to Baptist Hospital Heliport? Find the distance to fly.

From to FL85

Sunrise and sunset
Times for 25-Sep-2017
 Local
(UTC-5)
 Zulu
(UTC)
Morning civil twilight06:1611:16
Sunrise06:4011:40
Sunset18:4123:41
Evening civil twilight19:0500:05

Current date and time
Zulu (UTC)  26-Sep-2017 00:01:31
Local (UTC-5)  25-Sep-2017 19:01:31
 
METAR
KPNS 
4nm NE 
252353Z 14007KT 10SM CLR 27/22 A2987 RMK AO2 SLP115 T02720222 10306 20272 53001
KNPA 
7nm SW 
252256Z 12008KT 10SM SCT030 SCT250 27/22 A2986 RMK SLP111 T02720222
2R4 
18nm NE 
SuperAWOS
252335Z AUTO 00000KT 28/23 A2986
KNDZ 
20nm NE 
252256Z 09004KT 10SM FEW045 SCT055 SCT250 31/22 A2987 RMK SLP097 T03060222
TAF
KPNS 
4nm NE 
251720Z 2518/2618 09007KT P6SM VCSH SCT018 BKN060 BKN080 TEMPO 2520/2524 3SM TSRA OVC025CB FM260200 05004KT P6SM SCT030 BKN150
KNPA 
7nm SW 
2523/2623 09004KT 9999 SCT025 SCT250 QNH2985INS FM260800 06004KT 9999 VCSH SCT025 SCT050 QNH2984INS FM261300 09006KT 9999 SCT025 SCT050 QNH2988INS FM261800 15009KT 9999 SCT040 SCT080 QNH2984INS AUTOMATED SENSOR METWATCH 2603 TIL 2611 T23/2610Z T30/2618Z FN20053
NOTAMs
Click for the latest NOTAMs
NOTAMs are issued by the DoD/FAA and will open in a separate window not controlled by AirNav.

 

 
 

Would you like to see your business listed on this page?

 If your business provides an interesting product or service to pilots, flight crews, aircraft, or users of the Baptist Hospital Heliport, you should consider listing it here.  To start the listing process, click on the button below
 
Add a business
 

Other Pages about Baptist Hospital Heliport

Update a link
 
Copyright © AirNav, LLC. All rights reserved. Privacy Policy  Contact